Pagina principale
METAR-TAF:

METAR-TAF

Aeroporti :

Aeroporto di Milano-Malpensa

Milano, Italia

latitudine: 45-37N, longitudine: 008-44E, altezza: 234 m

Osservazione

Il bollettino è stato emesso 21 minuti fa, alle 20:50 UTC
Vento 7 kt da nord
Temperature 3°C
Umidità 56%
Pressione 1017 hPa
Visibilità 10 km o più
Nuvoloso ad un'altezza di 8000 ft

METAR: LIMC 122050Z 01007KT 9999 BKN080 03/M05 Q1017 NOSIG

Ora: 22:11 (21:11 UTC)

Previsione

Il bollettino è stato emesso 4 ore e 11 minuti fa, alle 17:00 UTC
Previsione valida dal 12 alle 18 UTC al 13 alle 24 UTC
Vento 5 kt da direzioni variabili
Visibilità 10 km o più
Nubi sparse ad un'altezza di 3000 ft
Nuvoloso ad un'altezza di 7000 ft

TAF: LIMC 121700Z 1218/1324 VRB05KT 9999 SCT030 BKN070

Osservazioni e previsioni meteorologiche di più di 4000 aeroporti (messaggi METAR e TAF).

Le stazioni disponibili sono rappresentate dai dischi gialli e rossi sulla carta.

Puntare il mouse per vedere il nome della stazione.

Clicca sopra per visualizzare le osservazioni e previsioni meteorologiche.

Per cambiare la mappa : fare clic sui pulsanti verdi con una croce nera per ingrandire, il pulsante verde con un trattino per diminuire, o sulla freccia verde per le mappe adiacenti.


METAR-TAF: